Total_Precipitation_Accumulation
1.75 1.65 1.23 0.68 0.50 0.37 0.31 0.30 0.29 0.24 0.27 0.32 0.33 0.32 0.36 0.35 0.32 0.33 0.31 0.27 0.30 0.43 0.61 0.69 0.73 0.95 1.13 1.22 1.33 1.42 1.51 1.58 1.72 1.74 1.72 1.70 1.54 1.36 1.20 1.09 1.01 0.95 0.92 0.92
1.53 1.15 0.70 0.51 0.49 0.43 0.38 0.36 0.33 0.28 0.26 0.34 0.36 0.33 0.29 0.27 0.30 0.33 0.33 0.32 0.33 0.40 0.51 0.60 0.64 0.72 0.88 1.03 1.23 1.37 1.46 1.60 1.62 1.63 1.73 1.86 1.93 1.76 1.50 1.34 1.21 1.11 1.07 1.06
1.15 0.70 0.54 0.62 0.57 0.52 0.40 0.32 0.29 0.29 0.32 0.35 0.34 0.32 0.25 0.25 0.31 0.33 0.32 0.34 0.31 0.33 0.38 0.44 0.51 0.64 0.77 0.87 1.08 1.32 1.45 1.60 1.64 1.68 1.90 2.04 2.16 2.00 1.71 1.36 1.20 1.18 1.20 1.22
1.02 0.61 0.58 0.68 0.53 0.43 0.40 0.22 0.22 0.25 0.38 0.42 0.34 0.45 0.29 0.29 0.33 0.34 0.35 0.34 0.30 0.29 0.32 0.35 0.41 0.51 0.62 0.75 0.91 1.08 1.26 1.45 1.63 1.68 1.73 1.78 1.85 1.82 1.61 1.49 1.40 1.41 1.41 1.40
0.95 0.65 0.66 0.70 0.48 0.38 0.36 0.22 0.25 0.26 0.37 0.41 0.30 0.42 0.35 0.20 0.25 0.33 0.39 0.39 0.36 0.34 0.34 0.33 0.38 0.49 0.55 0.65 0.85 0.98 1.09 1.29 1.51 1.62 1.67 1.78 1.75 1.75 1.83 1.79 1.68 1.58 1.51 1.48
0.72 0.58 0.69 0.59 0.45 0.41 0.38 0.37 0.40 0.38 0.51 0.53 0.24 0.34 0.37 0.25 0.27 0.29 0.30 0.35 0.38 0.39 0.43 0.45 0.48 0.51 0.53 0.56 0.73 0.93 0.99 1.11 1.27 1.48 1.66 1.71 1.65 1.68 1.72 1.72 1.68 1.64 1.61 1.59
0.95 0.72 0.58 0.52 0.61 0.53 0.47 0.58 0.80 0.83 0.74 0.39 0.17 0.26 0.33 0.25 0.28 0.29 0.28 0.31 0.34 0.41 0.44 0.49 0.51 0.48 0.49 0.52 0.61 0.78 0.92 1.05 1.12 1.27 1.42 1.55 1.62 1.62 1.64 1.67 1.64 1.57 1.49 1.42
0.91 0.97 0.59 0.48 0.57 0.58 0.45 0.43 0.54 0.53 0.34 0.23 0.19 0.27 0.28 0.24 0.23 0.22 0.22 0.25 0.29 0.34 0.35 0.38 0.45 0.49 0.50 0.50 0.54 0.58 0.65 0.76 0.82 0.91 1.02 1.14 1.33 1.43 1.39 1.45 1.48 1.45 1.38 1.36
0.53 0.59 0.37 0.31 0.32 0.36 0.46 0.38 0.23 0.39 0.33 0.30 0.23 0.21 0.21 0.19 0.19 0.19 0.21 0.25 0.29 0.34 0.37 0.38 0.45 0.48 0.52 0.54 0.56 0.56 0.56 0.60 0.70 0.73 0.78 0.82 0.96 1.10 1.16 1.21 1.22 1.17 1.17 1.23
0.29 0.38 0.31 0.27 0.32 0.33 0.32 0.30 0.36 0.60 0.52 0.37 0.21 0.17 0.25 0.21 0.17 0.19 0.23 0.25 0.29 0.38 0.37 0.37 0.42 0.45 0.48 0.53 0.56 0.55 0.55 0.55 0.65 0.71 0.76 0.76 0.79 0.87 0.99 1.08 1.02 1.01 1.03 1.06
0.23 0.34 0.35 0.32 0.34 0.28 0.23 0.30 0.34 0.40 0.36 0.34 0.21 0.22 0.26 0.24 0.20 0.21 0.24 0.27 0.35 0.40 0.40 0.39 0.42 0.45 0.50 0.55 0.55 0.52 0.55 0.56 0.59 0.64 0.65 0.65 0.68 0.73 0.79 0.87 0.90 0.90 0.94 0.94
0.14 0.24 0.30 0.22 0.14 0.12 0.18 0.18 0.23 0.42 0.29 0.21 0.21 0.25 0.24 0.22 0.20 0.20 0.22 0.26 0.32 0.35 0.38 0.37 0.38 0.43 0.47 0.49 0.45 0.44 0.49 0.52 0.57 0.60 0.57 0.58 0.60 0.62 0.65 0.69 0.74 0.77 0.81 0.83
0.16 0.24 0.33 0.32 0.26 0.24 0.25 0.15 0.16 0.33 0.47 0.33 0.27 0.27 0.23 0.19 0.17 0.17 0.18 0.20 0.24 0.26 0.27 0.27 0.28 0.28 0.30 0.31 0.32 0.36 0.39 0.37 0.40 0.43 0.42 0.44 0.46 0.50 0.55 0.58 0.59 0.62 0.69 0.73
0.35 0.29 0.26 0.31 0.29 0.37 0.35 0.17 0.16 0.50 0.64 0.27 0.15 0.21 0.19 0.17 0.18 0.19 0.19 0.18 0.17 0.18 0.19 0.21 0.21 0.19 0.20 0.23 0.26 0.28 0.27 0.28 0.31 0.32 0.31 0.33 0.36 0.40 0.44 0.46 0.45 0.46 0.50 0.56
0.36 0.33 0.20 0.23 0.29 0.45 0.38 0.22 0.20 0.34 0.26 0.26 0.15 0.16 0.18 0.18 0.22 0.22 0.20 0.16 0.14 0.13 0.13 0.15 0.16 0.15 0.16 0.18 0.20 0.21 0.23 0.29 0.34 0.35 0.33 0.32 0.32 0.34 0.37 0.38 0.39 0.38 0.39 0.41
0.32 0.34 0.27 0.29 0.28 0.38 0.31 0.15 0.13 0.15 0.12 0.12 0.11 0.15 0.15 0.19 0.23 0.26 0.23 0.16 0.11 0.09 0.09 0.10 0.11 0.12 0.12 0.14 0.18 0.22 0.27 0.35 0.40 0.42 0.37 0.34 0.33 0.32 0.30 0.29 0.30 0.30 0.32 0.34
0.34 0.44 0.57 0.48 0.24 0.28 0.25 0.14 0.13 0.12 0.09 0.09 0.13 0.13 0.13 0.21 0.25 0.23 0.17 0.11 0.08 0.07 0.07 0.07 0.07 0.09 0.11 0.16 0.23 0.31 0.36 0.43 0.45 0.47 0.43 0.36 0.33 0.32 0.29 0.27 0.28 0.30 0.32 0.36
0.21 0.40 0.65 0.59 0.38 0.37 0.24 0.17 0.15 0.12 0.09 0.06 0.08 0.07 0.09 0.13 0.15 0.13 0.10 0.09 0.06 0.04 0.04 0.04 0.05 0.06 0.08 0.13 0.22 0.30 0.37 0.48 0.51 0.50 0.48 0.45 0.45 0.45 0.47 0.47 0.48 0.49 0.49 0.50
0.07 0.27 0.48 0.42 0.32 0.17 0.09 0.10 0.12 0.13 0.10 0.05 0.05 0.04 0.04 0.06 0.12 0.17 0.14 0.10 0.07 0.04 0.03 0.02 0.03 0.04 0.05 0.08 0.14 0.23 0.35 0.50 0.61 0.67 0.65 0.65 0.67 0.71 0.75 0.77 0.76 0.77 0.79 0.78
0.04 0.12 0.29 0.27 0.23 0.10 0.04 0.02 0.03 0.05 0.08 0.02 0.02 0.02 0.02 0.04 0.09 0.16 0.17 0.13 0.11 0.09 0.07 0.05 0.05 0.06 0.09 0.12 0.18 0.30 0.47 0.61 0.71 0.74 0.77 0.81 0.85 0.90 0.87 0.86 0.82 0.75 0.71 0.70
0.10 0.16 0.22 0.22 0.19 0.04 0.01 0.00 0.01 0.05 0.08 0.02 0.01 0.01 0.01 0.02 0.05 0.06 0.11 0.15 0.14 0.15 0.17 0.17 0.18 0.20 0.22 0.25 0.34 0.47 0.58 0.66 0.69 0.69 0.71 0.73 0.71 0.72 0.69 0.66 0.62 0.58 0.53 0.47
0.04 0.08 0.09 0.10 0.13 0.06 0.01 0.01 0.02 0.03 0.02 0.01 0.01 0.01 0.02 0.02 0.02 0.03 0.04 0.08 0.12 0.16 0.22 0.29 0.34 0.37 0.37 0.40 0.46 0.52 0.54 0.54 0.52 0.49 0.47 0.44 0.39 0.35 0.34 0.34 0.34 0.32 0.30 0.26
0.03 0.05 0.05 0.05 0.07 0.03 0.01 0.01 0.02 0.01 0.02 0.01 0.01 0.01 0.02 0.02 0.02 0.02 0.02 0.03 0.05 0.07 0.09 0.14 0.20 0.24 0.25 0.25 0.27 0.29 0.26 0.23 0.19 0.16 0.14 0.13 0.10 0.09 0.08 0.08 0.09 0.11 0.14 0.14
0.06 0.03 0.03 0.04 0.04 0.02 0.02 0.02 0.02 0.02 0.02 0.02 0.02 0.03 0.03 0.03 0.03 0.03 0.02 0.02 0.03 0.03 0.03 0.04 0.06 0.07 0.07 0.08 0.08 0.09 0.07 0.05 0.04 0.03 0.03 0.03 0.03 0.03 0.03 0.04 0.04 0.05 0.07 0.09
0.08 0.05 0.04 0.04 0.03 0.02 0.02 0.02 0.01 0.01 0.01 0.02 0.02 0.02 0.03 0.04 0.04 0.04 0.04 0.03 0.03 0.03 0.03 0.04 0.04 0.04 0.04 0.04 0.05 0.05 0.05 0.04 0.04 0.03 0.03 0.03 0.03 0.04 0.04 0.04 0.04 0.06 0.06 0.09
0.04 0.05 0.07 0.07 0.03 0.02 0.01 0.01 0.01 0.01 0.01 0.01 0.02 0.02 0.02 0.02 0.04 0.03 0.03 0.04 0.04 0.05 0.04 0.04 0.04 0.05 0.06 0.06 0.07 0.07 0.08 0.08 0.07 0.07 0.06 0.07 0.07 0.07 0.07 0.07 0.07 0.09 0.10 0.12